Location: Vancouver
(49.2500°N, 123.1330°W)
Time: 02:20:17
(UTC-08:00)

BREEZE-M DEB (TANK) - Visible Passes

Search period start: 22 November 2014 00:00
Search period end: 02 December 2014 00:00
Orbit: 285 x 13619 km, 49.6° (Epoch: 21 November)

Date Brightness Start Highest point End Pass type
(mag) Time Alt. Az. Time Alt. Az. Time Alt. Az.
22 Nov 4.7 03:20:25 45° E 03:20:25 45° E 03:29:57 10° E visible
23 Nov 3.9 04:52:09 53° W 04:54:01 86° SSW 05:16:08 10° ESE visible
24 Nov 6.1 02:08:32 16° ENE 02:08:32 16° ENE 02:10:49 10° ENE visible
24 Nov 5.3 06:23:49 14° WNW 06:30:32 65° SSW 07:06:28 10° SE visible
25 Nov 4.3 03:40:10 60° E 03:40:10 60° E 03:53:02 10° E visible
26 Nov 4.3 05:11:44 42° W 05:14:35 78° SSW 05:40:26 10° ESE visible
27 Nov 5.8 02:28:01 23° E 02:28:01 23° E 02:32:33 10° E visible
27 Nov 5.5 06:43:16 10° WNW 06:51:19 55° SSW 07:29:27 10° SE visible
28 Nov 4.0 03:59:29 78° ESE 03:59:29 78° ESE 04:16:04 10° ESE visible
29 Nov 4.6 05:30:55 33° W 05:34:46 67° SSW 06:03:56 10° SE visible
30 Nov 5.5 02:47:04 31° E 02:47:04 31° E 02:54:12 10° E visible
30 Nov 5.8 07:02:50 10° WNW 07:11:49 45° SSW 07:50:22 10° SSE visible
01 Dec 4.0 04:18:24 80° SW 04:18:38 81° SSW 04:38:52 10° ESE visible
